Location: Unspecified
(50.1700°N, 6.8600°E)
Time: 11:14:14
(UTC+00:00)

Lacrosse 4 Rocket - Pass Details

Date: 24 January 2019
Orbit: 544 x 615 km, 68.0° (Epoch: 17 October)

Event Time Altitude Azimuth Distance (km) Brightness Sun altitude
Exits shadow 05:36:51 11° 224° (SW) 1,852 3.7 -15.9°
Drops below altitude 10° 05:37:06 10° 221° (SW) 1,905 3.8 -15.8°
Sets 05:40:15 0° 197° (SSW) 2,816 4.9 -15.4°
